Weather History for Mount Ida, AR

Change the Weather History Date:

Sunday, May 11, 2014

  Actual Average (KHOT) Record (KHOT)
Temperature  
Mean Temperature 78 °F -  
Max Temperature 84 °F 80 °F 92 °F (1967)
Min Temperature 72 °F 56 °F 40 °F (1960)
Cooling Degree Days 13    
Growing Degree Days 28 (Base 50)    
Moisture  
Dew Point 69 °F    
Average Humidity 78    
Maximum Humidity 91    
Minimum Humidity 61    
Precipitation  
Precipitation 0.00 in - - ()
Sea Level Pressure  
Sea Level Pressure 29.84 in    
Wind  
Wind Speed 6 mph (SSE)    
Max Wind Speed 10 mph    
Max Gust Speed 20 mph    
Visibility 10 miles    
Events      
Averages and records for this station are not official NWS values.
T = Trace of Precipitation, MM = Missing Value Source: NWS Daily Summary

Daily Weather History Graph

Daily Weather History Graph

Search for Another Location

Airport:

Trip Planner

Search our weather history database for the weather conditions in past years. The results will help you decide how hot, cold, wet, or windy it might be!

Date:

Astronomy

May. 11, 2014 Rise Set
Actual Time 6:14 AM CDT 8:06 PM CDT
Civil Twilight 5:47 AM CDT 8:34 PM CDT
Nautical Twilight 5:13 AM CDT 9:08 PM CDT
Astronomical Twilight 4:38 AM CDT 9:43 PM CDT
Moon 5:11 PM CDT (5/11) 4:11 AM CDT (5/11)
Length of Visible Light 14h 47m
Length of Day
13h 52m
Waxing Gibbous, 89% of the Moon is Illuminated
May 11
Waxing Gibbous
May 14
Full
May 21
Last Quarter
May 28
New
Jun 5
First Quarter

Hourly Weather History & Observations

Time (CDT) Temp. Heat Index Dew Point Humidity Pressure Visibility Wind Dir Wind Speed Gust Speed Precip Events Conditions
12:53 AM 75.0 °F - 68.0 °F 79% 29.85 in 10.0 mi Variable 6.9 mph - N/A   Clear
1:53 AM 75.0 °F - 68.0 °F 79% 29.85 in 10.0 mi North - - N/A   Clear
2:46 AM 73.9 °F - 68.0 °F 82% 29.88 in 10.0 mi Variable 3.5 mph - N/A   Mostly Cloudy
2:53 AM 73.9 °F - 68.0 °F 82% 29.85 in 10.0 mi SE 4.6 mph - N/A   Mostly Cloudy
3:53 AM 73.9 °F - 69.1 °F 85% 29.84 in 10.0 mi Variable 6.9 mph - N/A   Overcast
4:05 AM 73.9 °F - 69.1 °F 85% 29.88 in 10.0 mi Variable 3.5 mph - N/A   Overcast
4:53 AM 73.0 °F - 69.1 °F 87% 29.84 in 10.0 mi Variable 4.6 mph - N/A   Overcast
5:53 AM 73.0 °F - 68.0 °F 84% 29.84 in 10.0 mi Variable 5.8 mph - N/A   Overcast
6:06 AM 73.0 °F - 66.9 °F 81% 29.88 in 10.0 mi SSW 5.8 mph - N/A   Overcast
6:40 AM 73.0 °F - 68.0 °F 84% 29.88 in 10.0 mi Variable 5.8 mph - N/A   Overcast
6:53 AM 73.0 °F - 68.0 °F 84% 29.85 in 10.0 mi Variable 4.6 mph - N/A   Overcast
7:53 AM 72.0 °F - 68.0 °F 87% 29.87 in 7.0 mi SSE 4.6 mph - N/A   Overcast
8:10 AM 72.0 °F - 69.1 °F 91% 29.90 in 5.0 mi Variable 3.5 mph - N/A   Overcast
8:39 AM 73.0 °F - 69.1 °F 87% 29.90 in 8.0 mi North - - N/A   Overcast
8:53 AM 73.0 °F - 69.1 °F 87% 29.88 in 9.0 mi Variable 4.6 mph - N/A   Overcast
9:53 AM 73.9 °F - 69.1 °F 85% 29.88 in 10.0 mi Variable 3.5 mph - N/A   Overcast
10:03 AM 75.0 °F - 69.1 °F 82% 29.90 in 10.0 mi Variable 5.8 mph - N/A   Overcast
10:53 AM 75.9 °F - 69.1 °F 79% 29.88 in 10.0 mi Variable 6.9 mph - N/A   Overcast
11:53 AM 79.0 °F - 68.0 °F 69% 29.88 in 10.0 mi South 4.6 mph - N/A   Mostly Cloudy
12:53 PM 81.0 °F 83.3 °F 66.9 °F 62% 29.86 in 10.0 mi Variable 5.8 mph 19.6 mph N/A   Scattered Clouds
1:53 PM 82.9 °F 87.0 °F 70.0 °F 65% 29.84 in 10.0 mi Variable 5.8 mph - N/A   Mostly Cloudy
2:53 PM 84.0 °F 87.8 °F 69.1 °F 61% 29.82 in 10.0 mi North - - N/A   Scattered Clouds
3:53 PM 82.9 °F 86.5 °F 69.1 °F 63% 29.81 in 10.0 mi SSE 9.2 mph 16.1 mph N/A   Partly Cloudy
4:53 PM 82.0 °F 85.9 °F 70.0 °F 67% 29.79 in 10.0 mi Variable 5.8 mph - 0.00 in   Clear
5:53 PM 82.9 °F 87.0 °F 70.0 °F 65% 29.78 in 10.0 mi Variable 4.6 mph - N/A   Partly Cloudy
6:53 PM 80.1 °F 83.2 °F 70.0 °F 71% 29.77 in 10.0 mi SE 9.2 mph 18.4 mph N/A   Clear
7:53 PM 79.0 °F - 71.1 °F 77% 29.78 in 10.0 mi Variable 6.9 mph - N/A   Mostly Cloudy
8:53 PM 77.0 °F - 70.0 °F 79% 29.78 in 10.0 mi SE 9.2 mph - N/A   Clear
9:53 PM 77.0 °F - 69.1 °F 76% 29.81 in 10.0 mi SSE 10.4 mph - N/A   Clear
10:53 PM 75.9 °F - 69.1 °F 79% 29.81 in 10.0 mi SE 5.8 mph - N/A   Partly Cloudy
11:46 PM 75.0 °F - 69.1 °F 82% 29.84 in 10.0 mi SE 6.9 mph 18.4 mph N/A   Mostly Cloudy
11:53 PM 75.0 °F - 69.1 °F 82% 29.81 in 10.0 mi SE 8.1 mph - N/A   Mostly Cloudy